TimeEST,TemperatureF,Dew PointF,Humidity,Sea Level PressureIn,VisibilityMPH,Wind Direction,Wind SpeedMPH,Gust SpeedMPH,PrecipitationIn,Events,Conditions,WindDirDegrees,DateUTC
12:15 AM,15.8,3.2,58,29.99,10.0,SSW,3.5,-,N/A,,Overcast,210,2013-02-18 05:15:00
12:35 AM,15.8,3.2,58,30.00,10.0,WSW,3.5,-,N/A,,Overcast,250,2013-02-18 05:35:00
12:55 AM,15.8,3.2,58,29.99,10.0,Calm,Calm,-,N/A,,Overcast,0,2013-02-18 05:55:00
1:15 AM,15.8,1.4,53,29.99,10.0,Calm,Calm,-,N/A,,Overcast,0,2013-02-18 06:15:00
1:35 AM,15.8,1.4,53,29.99,10.0,Calm,Calm,-,N/A,,Overcast,0,2013-02-18 06:35:00
1:55 AM,15.8,3.2,58,29.98,10.0,Calm,Calm,-,N/A,,Overcast,0,2013-02-18 06:55:00
2:15 AM,17.6,8.6,68,29.97,10.0,Calm,Calm,-,N/A,,Overcast,0,2013-02-18 07:15:00
2:35 AM,17.6,12.2,79,29.96,10.0,Calm,Calm,-,N/A,,Overcast,0,2013-02-18 07:35:00
2:55 AM,15.8,8.6,73,29.95,10.0,Calm,Calm,-,N/A,,Overcast,0,2013-02-18 07:55:00
3:15 AM,17.6,10.4,73,29.94,10.0,Calm,Calm,-,N/A,,Overcast,0,2013-02-18 08:15:00
3:35 AM,17.6,10.4,73,29.93,10.0,Calm,Calm,-,N/A,,Overcast,0,2013-02-18 08:35:00
3:55 AM,17.6,12.2,79,29.92,10.0,Calm,Calm,-,N/A,,Overcast,0,2013-02-18 08:55:00
4:15 AM,17.6,12.2,79,29.91,1.2,Calm,Calm,-,N/A,,Overcast,0,2013-02-18 09:15:00
4:35 AM,21.2,17.6,86,29.88,2.0,ESE,6.9,-,N/A,,Overcast,110,2013-02-18 09:35:00
4:55 AM,26.6,24.8,93,29.86,10.0,SE,9.2,-,N/A,,Overcast,140,2013-02-18 09:55:00
5:15 AM,28.4,24.8,86,29.85,10.0,SE,12.7,-,N/A,,Overcast,140,2013-02-18 10:15:00
5:35 AM,28.4,24.8,86,29.84,10.0,SSE,15.0,-,N/A,,Overcast,150,2013-02-18 10:35:00
5:55 AM,28.4,24.8,86,29.82,10.0,SSE,15.0,19.6,N/A,,Overcast,150,2013-02-18 10:55:00
6:15 AM,28.4,23.0,80,29.82,10.0,SSE,15.0,21.9,N/A,,Mostly Cloudy,150,2013-02-18 11:15:00
6:35 AM,28.4,23.0,80,29.81,10.0,SSE,15.0,23.0,N/A,,Overcast,150,2013-02-18 11:35:00
6:55 AM,28.4,23.0,80,29.81,10.0,SSE,13.8,20.7,N/A,,Overcast,150,2013-02-18 11:55:00
7:15 AM,28.4,21.2,74,29.80,10.0,SSE,15.0,-,N/A,,Overcast,160,2013-02-18 12:15:00
7:35 AM,28.4,21.2,74,29.79,10.0,SSE,11.5,19.6,N/A,,Overcast,160,2013-02-18 12:35:00
7:55 AM,28.4,21.2,74,29.79,10.0,SSE,13.8,-,N/A,,Overcast,160,2013-02-18 12:55:00
8:15 AM,28.4,21.2,74,29.78,10.0,SSE,15.0,18.4,N/A,,Overcast,160,2013-02-18 13:15:00
8:35 AM,28.4,21.2,74,29.77,10.0,SSE,12.7,20.7,N/A,,Overcast,160,2013-02-18 13:35:00
8:55 AM,30.2,21.2,69,29.76,10.0,SSE,12.7,17.3,N/A,,Overcast,160,2013-02-18 13:55:00
9:15 AM,30.2,21.2,69,29.75,10.0,SSE,15.0,20.7,N/A,,Overcast,160,2013-02-18 14:15:00
9:35 AM,30.2,23.0,75,29.73,10.0,SSE,13.8,-,N/A,,Overcast,150,2013-02-18 14:35:00
9:55 AM,30.2,23.0,75,29.72,10.0,SSE,12.7,18.4,N/A,,Overcast,150,2013-02-18 14:55:00
10:15 AM,30.2,24.8,80,29.71,10.0,SSE,12.7,-,N/A,,Overcast,160,2013-02-18 15:15:00
10:35 AM,30.2,24.8,80,29.71,10.0,SSE,16.1,23.0,N/A,,Overcast,160,2013-02-18 15:35:00
10:55 AM,30.2,24.8,80,29.70,10.0,SSE,15.0,-,N/A,,Overcast,160,2013-02-18 15:55:00
11:15 AM,32.0,24.8,75,29.69,10.0,SSE,17.3,23.0,N/A,,Overcast,150,2013-02-18 16:15:00
11:35 AM,32.0,24.8,75,29.68,10.0,SSE,15.0,20.7,N/A,,Overcast,160,2013-02-18 16:35:00
11:55 AM,32.0,26.6,80,29.67,10.0,SSE,13.8,19.6,N/A,,Overcast,160,2013-02-18 16:55:00
12:15 PM,33.8,26.6,75,29.65,10.0,SSE,15.0,20.7,N/A,,Overcast,160,2013-02-18 17:15:00
12:35 PM,33.8,26.6,75,29.64,10.0,SSE,15.0,20.7,N/A,,Overcast,150,2013-02-18 17:35:00
12:55 PM,33.8,26.6,75,29.63,10.0,SSE,16.1,21.9,N/A,,Overcast,160,2013-02-18 17:55:00
1:15 PM,33.8,28.4,81,29.62,10.0,SSE,17.3,20.7,N/A,,Overcast,160,2013-02-18 18:15:00
1:35 PM,33.8,28.4,81,29.60,10.0,SSE,17.3,21.9,N/A,,Overcast,150,2013-02-18 18:35:00
1:55 PM,33.8,28.4,81,29.59,10.0,SSE,17.3,24.2,N/A,,Overcast,160,2013-02-18 18:55:00
2:15 PM,33.8,28.4,81,29.58,10.0,SSE,17.3,26.5,N/A,,Overcast,160,2013-02-18 19:15:00
2:35 PM,33.8,28.4,81,29.57,10.0,SSE,17.3,24.2,N/A,,Overcast,160,2013-02-18 19:35:00
2:55 PM,33.8,30.2,87,29.56,10.0,SSE,17.3,24.2,N/A,,Overcast,150,2013-02-18 19:55:00
3:15 PM,33.8,28.4,81,29.56,10.0,SSE,17.3,23.0,N/A,,Overcast,160,2013-02-18 20:15:00
3:35 PM,35.6,28.4,75,29.56,10.0,SSE,18.4,24.2,N/A,,Overcast,160,2013-02-18 20:35:00
3:55 PM,35.6,30.2,81,29.56,10.0,SSE,13.8,-,N/A,,Overcast,160,2013-02-18 20:55:00
4:15 PM,35.6,30.2,81,29.56,10.0,South,10.4,-,N/A,,Overcast,170,2013-02-18 21:15:00
4:35 PM,35.6,30.2,81,29.53,9.0,SE,17.3,-,N/A,,Mostly Cloudy,140,2013-02-18 21:35:00
4:55 PM,35.6,30.2,81,29.53,10.0,SSE,12.7,18.4,N/A,,Scattered Clouds,150,2013-02-18 21:55:00
5:15 PM,35.6,30.2,81,29.52,10.0,SSE,15.0,-,N/A,,Partly Cloudy,150,2013-02-18 22:15:00
5:35 PM,35.6,30.2,81,29.52,10.0,SSE,17.3,-,N/A,,Scattered Clouds,150,2013-02-18 22:35:00
6:15 PM,35.6,30.2,81,29.52,10.0,South,6.9,-,N/A,,Overcast,180,2013-02-18 23:15:00
6:35 PM,35.6,30.2,81,29.51,10.0,WSW,3.5,-,N/A,,Overcast,240,2013-02-18 23:35:00
6:55 PM,33.8,30.2,87,29.53,10.0,SW,3.5,-,N/A,,Overcast,230,2013-02-18 23:55:00
7:15 PM,35.6,30.2,81,29.52,10.0,SSW,3.5,-,N/A,,Overcast,200,2013-02-19 00:15:00
7:35 PM,35.6,30.2,81,29.52,10.0,Calm,Calm,-,N/A,,Overcast,0,2013-02-19 00:35:00
7:55 PM,35.6,30.2,81,29.50,10.0,Calm,Calm,-,N/A,,Overcast,0,2013-02-19 00:55:00
8:15 PM,33.8,30.2,87,29.50,9.0,SE,3.5,-,N/A,,Overcast,140,2013-02-19 01:15:00
8:35 PM,33.8,30.2,87,29.50,5.0,Calm,Calm,-,N/A,,Overcast,0,2013-02-19 01:35:00
8:55 PM,33.8,30.2,87,29.49,3.0,Calm,Calm,-,N/A,,Overcast,0,2013-02-19 01:55:00
9:15 PM,32.0,30.2,93,29.48,2.5,Calm,Calm,-,N/A,,Mostly Cloudy,0,2013-02-19 02:15:00
9:35 PM,32.0,30.2,93,29.47,1.8,Calm,Calm,-,N/A,,Overcast,0,2013-02-19 02:35:00
9:55 PM,32.0,30.2,93,29.46,2.0,Calm,Calm,-,N/A,,Overcast,0,2013-02-19 02:55:00
10:15 PM,32.0,30.2,93,29.45,2.5,ENE,3.5,-,N/A,,Overcast,60,2013-02-19 03:15:00
10:35 PM,33.8,30.2,87,29.44,3.0,Calm,Calm,-,N/A,,Overcast,0,2013-02-19 03:35:00
10:55 PM,33.8,30.2,87,29.43,2.5,Calm,Calm,-,N/A,,Overcast,0,2013-02-19 03:55:00
11:15 PM,32.0,30.2,93,29.42,2.5,Calm,Calm,-,N/A,,Overcast,0,2013-02-19 04:15:00
11:35 PM,32.0,30.2,93,29.41,2.0,Calm,Calm,-,N/A,,Overcast,0,2013-02-19 04:35:00
11:55 PM,32.0,30.2,93,29.40,1.0,Calm,Calm,-,N/A,,Overcast,0,2013-02-19 04:55:00